Time,TemperatureF,DewpointF,PressureIn,WindDirection,WindDirectionDegrees,WindSpeedMPH,WindSpeedGustMPH,Humidity,HourlyPrecipIn,Conditions,Clouds,dailyrainin,SoftwareType,DateUTC
2014-04-18 00:10:00,57.7,47.0,29.74,ESE,114,0.0,0.0,67,0.00,,,0.00,weatherlink.com 1.10,2014-04-18 07:10:00,
2014-04-18 00:25:00,57.6,47.0,29.74,ESE,113,0.0,0.0,67,0.00,,,0.00,weatherlink.com 1.10,2014-04-18 07:25:00,
2014-04-18 00:40:00,57.5,47.0,29.74,ESE,113,0.0,1.0,68,0.00,,,0.00,weatherlink.com 1.10,2014-04-18 07:40:00,
2014-04-18 00:55:00,57.5,47.0,29.74,ESE,113,0.0,0.0,68,0.00,,,0.00,weatherlink.com 1.10,2014-04-18 07:55:00,
2014-04-18 01:10:00,56.9,47.0,29.74,ESE,113,0.0,0.0,69,0.00,,,0.00,weatherlink.com 1.10,2014-04-18 08:10:00,
2014-04-18 01:25:00,56.2,47.0,29.73,ESE,114,0.0,0.0,71,0.00,,,0.00,weatherlink.com 1.10,2014-04-18 08:25:00,
2014-04-18 01:40:00,55.5,47.0,29.74,ESE,113,0.0,0.0,72,0.00,,,0.00,weatherlink.com 1.10,2014-04-18 08:40:00,
2014-04-18 01:55:00,55.1,47.0,29.74,ESE,113,0.0,0.0,73,0.00,,,0.00,weatherlink.com 1.10,2014-04-18 08:55:00,
2014-04-18 02:10:00,55.0,47.0,29.74,ESE,113,0.0,0.0,74,0.00,,,0.00,weatherlink.com 1.10,2014-04-18 09:10:00,
2014-04-18 02:25:00,55.1,47.0,29.74,ESE,113,0.0,0.0,74,0.00,,,0.00,weatherlink.com 1.10,2014-04-18 09:25:00,
2014-04-18 02:40:00,55.4,47.0,29.74,ESE,113,0.0,0.0,73,0.00,,,0.00,weatherlink.com 1.10,2014-04-18 09:40:00,
2014-04-18 02:55:00,55.5,47.0,29.74,ESE,113,0.0,0.0,73,0.00,,,0.00,weatherlink.com 1.10,2014-04-18 09:55:00,
2014-04-18 03:10:00,55.6,47.0,29.74,ESE,114,0.0,0.0,73,0.00,,,0.00,weatherlink.com 1.10,2014-04-18 10:10:00,
2014-04-18 03:25:00,55.5,47.0,29.74,ESE,113,0.0,0.0,73,0.00,,,0.00,weatherlink.com 1.10,2014-04-18 10:25:00,
2014-04-18 03:40:00,55.7,47.0,29.75,ESE,113,0.0,0.0,72,0.00,,,0.00,weatherlink.com 1.10,2014-04-18 10:40:00,
2014-04-18 03:55:00,55.7,47.0,29.75,ESE,113,0.0,0.0,72,0.00,,,0.00,weatherlink.com 1.10,2014-04-18 10:55:00,
2014-04-18 04:10:00,55.6,47.0,29.75,ESE,114,0.0,0.0,72,0.00,,,0.00,weatherlink.com 1.10,2014-04-18 11:10:00,
2014-04-18 04:25:00,55.6,47.0,29.74,ESE,113,0.0,0.0,72,0.00,,,0.00,weatherlink.com 1.10,2014-04-18 11:25:00,
2014-04-18 04:40:00,55.8,46.0,29.74,ESE,113,0.0,0.0,70,0.00,,,0.00,weatherlink.com 1.10,2014-04-18 11:40:00,
2014-04-18 04:55:00,56.0,46.0,29.74,ESE,113,0.0,0.0,70,0.00,,,0.00,weatherlink.com 1.10,2014-04-18 11:55:00,
2014-04-18 05:10:00,56.0,46.0,29.74,ESE,113,0.0,0.0,69,0.00,,,0.00,weatherlink.com 1.10,2014-04-18 12:10:00,
2014-04-18 05:25:00,55.7,46.0,29.75,ESE,114,0.0,0.0,69,0.00,,,0.00,weatherlink.com 1.10,2014-04-18 12:25:00,
2014-04-18 05:40:00,55.5,45.0,29.75,ESE,114,0.0,0.0,69,0.00,,,0.00,weatherlink.com 1.10,2014-04-18 12:40:00,
2014-04-18 05:55:00,55.5,45.0,29.74,ESE,114,0.0,0.0,69,0.00,,,0.00,weatherlink.com 1.10,2014-04-18 12:55:00,
2014-04-18 06:10:00,55.3,46.0,29.74,ESE,114,0.0,0.0,70,0.00,,,0.00,weatherlink.com 1.10,2014-04-18 13:10:00,
2014-04-18 06:25:00,54.9,45.0,29.75,ESE,114,0.0,0.0,70,0.00,,,0.00,weatherlink.com 1.10,2014-04-18 13:25:00,
2014-04-18 06:40:00,54.8,46.0,29.75,ESE,113,0.0,0.0,71,0.00,,,0.00,weatherlink.com 1.10,2014-04-18 13:40:00,
2014-04-18 06:55:00,54.9,45.0,29.76,ESE,113,0.0,0.0,70,0.00,,,0.00,weatherlink.com 1.10,2014-04-18 13:55:00,
2014-04-18 07:10:00,55.2,46.0,29.76,ESE,114,0.0,0.0,71,0.00,,,0.00,weatherlink.com 1.10,2014-04-18 14:10:00,
2014-04-18 07:25:00,55.6,46.0,29.77,ESE,113,0.0,0.0,71,0.00,,,0.00,weatherlink.com 1.10,2014-04-18 14:25:00,
2014-04-18 07:40:00,56.0,47.0,29.77,ESE,113,0.0,0.0,71,0.00,,,0.00,weatherlink.com 1.10,2014-04-18 14:40:00,
2014-04-18 07:56:00,56.6,46.0,29.77,ESE,113,0.0,0.0,69,0.00,,,0.00,weatherlink.com 1.10,2014-04-18 14:56:00,
2014-04-18 08:11:00,57.9,46.0,29.78,ESE,114,0.0,0.0,65,0.00,,,0.00,weatherlink.com 1.10,2014-04-18 15:11:00,
2014-04-18 08:26:00,59.0,46.0,29.78,ESE,114,0.0,0.0,62,0.00,,,0.00,weatherlink.com 1.10,2014-04-18 15:26:00,
2014-04-18 08:41:00,60.2,46.0,29.78,ESE,114,0.0,0.0,60,0.00,,,0.00,weatherlink.com 1.10,2014-04-18 15:41:00,
2014-04-18 08:56:00,60.9,47.0,29.78,ESE,113,0.0,0.0,61,0.00,,,0.00,weatherlink.com 1.10,2014-04-18 15:56:00,
2014-04-18 09:11:00,61.6,47.0,29.78,SE,126,0.0,0.0,59,0.00,,,0.00,weatherlink.com 1.10,2014-04-18 16:11:00,
2014-04-18 09:26:00,62.5,47.0,29.78,SSW,205,0.0,1.0,57,0.00,,,0.00,weatherlink.com 1.10,2014-04-18 16:26:00,
2014-04-18 09:41:00,62.6,47.0,29.78,SSW,205,0.0,0.0,57,0.00,,,0.00,weatherlink.com 1.10,2014-04-18 16:41:00,
2014-04-18 09:56:00,63.8,47.0,29.78,SSW,205,0.0,0.0,54,0.00,,,0.00,weatherlink.com 1.10,2014-04-18 16:56:00,
2014-04-18 10:11:00,64.5,46.0,29.79,SSW,205,0.0,1.0,52,0.00,,,0.00,weatherlink.com 1.10,2014-04-18 17:11:00,
2014-04-18 10:26:00,65.7,47.0,29.79,SSW,205,0.0,0.0,52,0.00,,,0.00,weatherlink.com 1.10,2014-04-18 17:26:00,
2014-04-18 10:41:00,66.3,47.0,29.79,SW,225,0.0,2.0,51,0.00,,,0.00,weatherlink.com 1.10,2014-04-18 17:41:00,
2014-04-18 10:56:00,67.4,48.0,29.79,West,272,0.0,1.0,50,0.00,,,0.00,weatherlink.com 1.10,2014-04-18 17:56:00,
2014-04-18 11:11:00,68.2,48.0,29.78,SW,234,0.0,1.0,49,0.00,,,0.00,weatherlink.com 1.10,2014-04-18 18:11:00,
2014-04-18 11:26:00,68.5,48.0,29.79,WSW,254,0.0,1.0,49,0.00,,,0.00,weatherlink.com 1.10,2014-04-18 18:26:00,
2014-04-18 11:41:00,68.2,50.0,29.79,SSW,206,0.0,3.0,53,0.00,,,0.00,weatherlink.com 1.10,2014-04-18 18:41:00,